Find Think Orbital F2

NORAD ID: 62380 Int'l Des: NNA 2024-247 Owner: THINK Country: US operational
LEOCIRCULAR

Current View

Loading 3D Globe...

About Think Orbital F2

Description loading...

Upcoming Passes

Passes for default location (London). Set your location on the main map for personalized predictions.

Altitude History

Loading altitude history...

Two-Line Element Set

1 62380U 24247D 26149.03202356 .00011516 00000-0 39187-3 0 9996
2 62380 44.9961 34.5845 0003351 160.1671 199.9344 15.30560302 80065
Epoch: May 29, 2026 • Age: 27 hours

Current Status

Altitude 475.4 km
Velocity 7.63 km/s
Sub-Earth Point 21.31°N, 110.66°E
Launch Date Dec 21, 2024
Age 1.4 years
Type other

Technical Details

Classification Payload
Mass 20.00 kg
Dry Mass 20.00 kg
Total Mass 20.00 kg
Length 0.30 m
Diameter 0.20 m
Span 2.00 m
Shape Box+2 pan
Manufacturer THINK
Bus Type Cubesat 12U
Phase Status In Orbit
Owner/State THINK/US

Most Searched